FW8733 Weather Reports


time (UTC)temp
F
wind
direction
speed
knots
gust
knots
rain 1hr
in
rain 24hr
in
rain mn
in
humidity
%
barometer
mb
20260507101723 60 213 0.0 0.0 0.00 0.00 0.00 91 1019.9
20260507101219 59 219 0.9 0.9 0.00 0.00 0.00 91 1019.7
20260507100716 60 255 0.9 0.9 0.00 0.00 0.00 91 1020.0
20260507100215 60 221 0.0 0.0 0.00 0.00 0.00 91 1019.8
20260507095712 60 240 0.0 0.0 0.00 0.00 0.00 91 1019.8
20260507095209 60 265 0.9 1.7 0.00 0.00 0.00 91 1019.7
20260507094705 60 215 0.0 0.0 0.00 0.00 0.00 91 1019.8
20260507094202 60 224 0.0 0.9 0.00 0.00 0.00 91 1019.7
20260507093659 60 258 0.0 0.0 0.00 0.00 0.00 91 1019.9
20260507093158 60 238 0.0 0.0 0.00 0.00 0.00 91 1019.8
20260507092655 60 236 0.0 0.0 0.00 0.00 0.00 90 1019.6
20260507092151 60 244 0.0 0.0 0.00 0.00 0.00 91 1019.8
20260507091648 60 244 0.0 0.0 0.00 0.00 0.00 90 1019.6
20260507091144 60 260 0.0 0.9 0.00 0.00 0.00 90 1019.6
20260507090639 60 259 0.0 0.0 0.00 0.00 0.00 90 1019.9
20260507090137 60 238 0.0 0.0 0.00 0.00 0.00 90 1019.6
20260507085634 60 245 0.0 0.0 0.00 0.00 0.00 90 1019.3
20260507085130 60 210 0.0 0.0 0.00 0.00 0.00 90 1019.2
20260507084627 60 244 0.0 0.0 0.00 0.00 0.00 90 1019.3
20260507084124 60 220 0.0 0.9 0.00 0.00 0.00 90 1019.3
20260507083621 60 201 0.0 0.0 0.00 0.00 0.00 90 1018.9
20260507083118 60 200 0.0 0.0 0.00 0.00 0.00 90 1019.1
20260507082614 60 241 0.0 0.0 0.00 0.00 0.00 90 1019.3
20260507082110 60 241 0.0 0.0 0.00 0.00 0.00 90 1019.1
20260507081607 60 241 0.0 0.9 0.00 0.00 0.00 89 1019.0
20260507081104 60 242 0.0 0.0 0.00 0.00 0.00 89 1019.1
20260507080600 60 243 0.0 0.0 0.00 0.00 0.00 88 1018.8
20260507080056 60 243 0.9 0.9 0.00 0.00 0.00 88 1018.9
20260507075551 61 214 0.0 0.0 0.00 0.00 0.00 88 1018.8
20260507075048 61 213 0.9 0.9 0.00 0.00 0.00 88 1018.9
20260507074545 60 245 0.0 0.0 0.00 0.00 0.00 88 1018.6
20260507074043 61 197 0.0 0.0 0.00 0.00 0.00 88 1018.7
20260507073539 61 219 0.0 0.0 0.00 0.00 0.00 88 1018.7
20260507073036 61 223 0.0 0.0 0.00 0.00 0.00 87 1018.8
20260507072533 61 196 0.0 0.0 0.00 0.00 0.00 87 1018.9
20260507072030 61 208 0.9 0.9 0.00 0.00 0.00 87 1018.8
20260507071527 61 175 3.5 4.3 0.00 0.00 0.00 87 1019.0
20260507071024 61 249 0.9 0.9 0.00 0.00 0.00 87 1018.6
20260507070521 61 199 0.0 0.9 0.00 0.00 0.00 87 1018.4
20260507070018 61 202 0.0 0.0 0.00 0.00 0.00 87 1018.6
20260507065514 61 207 0.0 0.0 0.00 0.00 0.00 87 1018.9
20260507065012 61 217 0.9 0.9 0.00 0.00 0.00 87 1018.7
20260507064509 61 226 0.0 0.9 0.00 0.00 0.00 87 1018.4
20260507064008 61 264 0.0 0.0 0.00 0.00 0.00 87 1018.6
20260507063504 61 182 3.5 4.3 0.00 0.00 0.00 87 1018.5
20260507063002 61 239 0.0 0.9 0.00 0.00 0.00 87 1018.5
20260507062458 61 203 0.0 0.0 0.00 0.00 0.00 87 1018.5
20260507061956 62 217 0.0 0.0 0.00 0.00 0.00 87 1018.2
20260507061453 62 234 0.0 0.0 0.00 0.00 0.00 87 1018.6
20260507060952 62 234 0.0 0.0 0.00 0.00 0.00 86 1018.9
20260507060448 62 218 0.0 0.9 0.00 0.00 0.00 86 1018.9
20260507055945 62 218 0.9 1.7 0.00 0.00 0.00 86 1018.3
20260507055440 62 203 0.9 1.7 0.00 0.00 0.00 86 1018.6
20260507054937 62 183 1.7 1.7 0.00 0.00 0.00 86 1019.0
20260507054433 62 211 0.0 0.0 0.00 0.00 0.00 85 1018.7
20260507053931 62 207 1.7 2.6 0.00 0.00 0.00 85 1018.9
20260507053428 62 174 1.7 2.6 0.00 0.00 0.00 85 1018.6
20260507052927 62 215 1.7 2.6 0.00 0.00 0.00 86 1018.5
20260507052424 62 205 0.0 0.0 0.00 0.00 0.00 85 1018.6
20260507051920 62 207 0.0 0.9 0.00 0.00 0.00 86 1018.2
20260507051418 62 211 1.7 2.6 0.00 0.00 0.00 86 1018.5
20260507050915 62 214 0.9 1.7 0.00 0.00 0.00 86 1018.4
20260507050411 62 234 0.0 0.0 0.00 0.00 0.00 86 1018.4
20260507045908 62 222 0.0 0.9 0.00 0.00 0.00 86 1018.2
20260507045405 62 206 0.9 2.6 0.00 0.00 0.00 87 1018.4
20260507044902 62 216 0.0 0.0 0.00 0.00 0.00 87 1018.5
20260507044359 62 220 0.0 0.0 0.00 0.00 0.00 88 1018.5
20260507043855 62 207 0.0 0.0 0.00 0.00 0.00 88 1018.5
20260507043351 62 235 0.0 0.0 0.00 0.00 0.00 88 1018.5
20260507042848 62 244 0.0 0.0 0.00 0.00 0.00 88 1018.7
20260507042344 62 244 0.0 0.0 0.00 0.00 0.00 88 1018.5
20260507041840 62 245 0.0 0.0 0.00 0.00 0.00 88 1018.6
20260507041337 62 245 0.0 0.0 0.00 0.00 0.00 88 1018.5
20260507040835 62 247 0.9 1.7 0.00 0.00 0.00 89 1018.2
20260507040330 62 215 0.9 0.9 0.00 0.00 0.00 88 1018.3
20260507035826 62 195 2.6 2.6 0.00 0.00 0.00 88 1018.6
20260507035322 62 245 0.0 0.0 0.00 0.00 0.00 88 1018.6
20260507034820 62 245 0.0 0.0 0.00 0.00 0.00 88 1018.6
20260507034316 62 245 0.0 0.0 0.00 0.00 0.00 88 1018.7
20260507033815 62 245 1.7 1.7 0.00 0.00 0.00 88 1018.7
20260507033312 62 245 0.0 0.0 0.00 0.00 0.00 87 1018.6
20260507032809 62 246 0.0 0.9 0.00 0.00 0.00 87 1018.7
20260507032306 62 218 0.0 0.0 0.00 0.00 0.00 87 1018.3
20260507031802 63 232 0.0 0.0 0.00 0.00 0.00 87 1018.3
20260507031259 63 199 0.0 0.0 0.00 0.00 0.00 87 1017.9
20260507030755 63 246 0.0 0.9 0.00 0.00 0.00 87 1018.3
20260507030253 63 246 0.0 0.0 0.00 0.00 0.00 86 1018.1
20260507025750 63 224 0.0 0.0 0.00 0.00 0.00 87 1018.3
20260507025247 63 244 0.0 0.9 0.00 0.00 0.00 87 1018.1
20260507024745 63 244 0.0 0.0 0.00 0.00 0.00 87 1018.0
20260507024242 63 244 0.0 0.9 0.00 0.00 0.00 87 1018.1
20260507023737 63 212 0.0 0.0 0.00 0.00 0.00 88 1018.1
20260507023235 63 213 0.0 0.0 0.00 0.00 0.00 88 1018.0
20260507022732 63 245 0.0 0.0 0.00 0.00 0.00 87 1017.8
20260507022227 63 258 0.0 0.9 0.00 0.00 0.00 87 1017.8
20260507021724 63 245 0.0 0.0 0.00 0.00 0.00 87 1017.8
20260507021219 63 222 0.0 0.0 0.00 0.00 0.00 87 1017.8
20260507020718 63 199 0.9 1.7 0.00 0.00 0.00 87 1017.6
20260507020214 63 245 0.0 0.0 0.00 0.00 0.00 88 1017.4
20260507015712 63 245 0.0 0.0 0.00 0.00 0.00 88 1017.4
20260507015209 63 246 0.0 0.0 0.00 0.00 0.00 88 1017.4
20260507014706 63 246 0.0 0.0 0.00 0.00 0.00 87 1017.2
20260507014202 63 246 0.0 0.0 0.00 0.00 0.00 87 1017.1
20260507013659 63 245 0.0 0.0 0.00 0.00 0.00 87 1017.1
20260507013156 63 245 0.0 0.0 0.00 0.00 0.00 87 1017.1
20260507012654 63 245 0.0 0.0 0.00 0.00 0.00 87 1016.8
20260507012149 63 245 0.0 0.0 0.00 0.00 0.00 87 1016.7
20260507011647 63 245 0.0 0.0 0.00 0.00 0.00 87 1016.2
20260507011143 63 249 0.0 0.9 0.00 0.00 0.00 87 1016.5
20260507010638 63 249 0.0 0.0 0.00 0.00 0.00 86 1016.4
20260507010134 64 246 0.0 0.0 0.00 0.00 0.00 86 1016.4
20260507005631 64 246 0.0 0.0 0.00 0.00 0.00 86 1016.6
20260507005127 64 200 0.0 0.0 0.00 0.00 0.00 86 1016.5
20260507004624 64 200 0.0 0.9 0.00 0.00 0.00 86 1016.6
20260507004122 64 229 0.9 0.9 0.00 0.00 0.00 86 1016.4
20260507003618 64 230 0.0 0.9 0.00 0.00 0.00 85 1016.2
20260507003113 64 229 0.0 0.0 0.00 0.00 0.00 85 1015.9
20260507002610 64 217 0.0 0.0 0.00 0.00 0.00 86 1016.1
20260507002105 64 217 0.0 0.0 0.00 0.00 0.00 85 1015.9
20260507001603 64 236 0.0 0.0 0.00 0.00 0.00 85 1015.9
20260507001100 64 217 0.0 0.9 0.00 0.00 0.00 85 1016.2
20260507000556 64 229 0.0 0.0 0.00 0.00 0.00 85 1016.0
20260507000052 64 242 0.0 0.9 0.00 0.00 0.00 86 1016.0
20260506235549 64 243 0.0 0.9 0.00 0.00 0.00 86 1016.2
20260506235044 64 243 0.0 0.9 0.00 0.00 0.00 86 1016.1
20260506234542 64 244 0.9 1.7 0.00 0.00 0.00 85 1015.8
20260506234039 64 209 0.0 0.0 0.00 0.00 0.00 85 1016.1
20260506233536 64 252 0.0 0.0 0.00 0.00 0.00 85 1016.3
20260506233033 64 214 0.0 0.0 0.00 0.00 0.00 85 1016.0
20260506232529 64 214 0.0 0.0 0.00 0.00 0.00 85 1015.6
20260506232024 64 214 0.9 0.9 0.00 0.00 0.00 84 1016.0
20260506231522 64 243 0.0 0.0 0.00 0.00 0.00 85 1015.8
20260506231020 64 244 0.0 0.0 0.00 0.00 0.00 85 1015.8
20260506230516 64 210 0.0 0.9 0.00 0.00 0.00 84 1015.9
20260506230014 64 235 0.0 0.0 0.00 0.00 0.00 85 1015.6
20260506225510 64 209 0.0 0.0 0.00 0.00 0.00 85 1015.6
20260506225007 64 209 0.9 1.7 0.00 0.00 0.00 84 1015.9
20260506224504 64 254 0.9 1.7 0.00 0.00 0.00 84 1015.8
20260506224000 64 223 0.0 0.9 0.00 0.00 0.00 85 1015.9
20260506223456 64 256 0.0 0.0 0.00 0.00 0.00 84 1015.9
20260506222953 64 214 1.7 1.7 0.00 0.00 0.00 85 1015.6
20260506222450 64 213 0.9 0.9 0.00 0.00 0.00 84 1015.8
20260506221946 64 211 0.9 0.9 0.00 0.00 0.00 84 1016.0
20260506221444 64 210 0.0 0.0 0.00 0.00 0.00 84 1015.6
20260506220942 64 239 0.9 0.9 0.00 0.00 0.00 83 1015.8
20260506220437 65 251 0.0 0.0 0.00 0.00 0.00 83 1015.6
20260506215933 65 235 0.0 0.9 0.00 0.00 0.00 83 1015.5
20260506215430 66 232 0.0 0.0 0.00 0.00 0.00 81 1015.8
20260506214926 66 256 0.0 0.9 0.00 0.00 0.00 81 1015.6
20260506214423 66 251 0.0 0.0 0.00 0.00 0.00 81 1015.6
20260506213921 66 205 1.7 1.7 0.00 0.00 0.00 82 1015.5
20260506213418 66 273 0.0 0.9 0.00 0.00 0.00 81 1015.5
20260506212915 66 207 0.0 0.0 0.00 0.00 0.00 82 1015.4
20260506212411 66 262 1.7 1.7 0.00 0.00 0.00 81 1015.5
20260506211906 66 190 0.9 0.9 0.00 0.00 0.00 81 1015.5
20260506211402 67 256 0.0 0.0 0.00 0.00 0.00 81 1015.6
20260506210859 67 260 1.7 1.7 0.00 0.00 0.00 80 1015.5
20260506210356 67 212 0.0 0.0 0.00 0.00 0.00 81 1015.6
20260506205854 67 210 0.0 0.0 0.00 0.00 0.00 81 1015.7
20260506205349 67 237 0.0 0.9 0.00 0.00 0.00 81 1015.6
20260506204846 68 253 2.6 2.6 0.00 0.00 0.00 79 1015.5
20260506204344 68 172 0.9 0.9 0.00 0.00 0.00 80 1015.8
20260506203841 67 263 0.9 0.9 0.00 0.00 0.00 81 1015.7
20260506203338 68 147 0.9 2.6 0.00 0.00 0.00 81 1015.7
20260506202835 67 198 0.9 0.9 0.00 0.00 0.00 83 1016.0
20260506202332 68 215 0.0 0.0 0.00 0.00 0.00 82 1016.1
20260506201828 68 264 1.7 2.6 0.00 0.00 0.00 81 1015.6
20260506201326 69 240 0.9 1.7 0.00 0.00 0.00 81 1015.6
20260506200822 70 190 0.0 0.9 0.00 0.00 0.00 81 1015.7
20260506200319 70 238 0.0 0.0 0.00 0.00 0.00 82 1015.5
20260506195815 70 236 0.0 0.0 0.00 0.00 0.00 82 1015.5
20260506195312 70 251 0.9 1.7 0.00 0.00 0.00 82 1015.3
20260506194809 69 250 0.0 0.0 0.00 0.00 0.00 83 1015.3
20260506194305 70 286 1.7 1.7 0.00 0.00 0.00 82 1015.4
20260506193803 70 234 0.0 0.9 0.00 0.00 0.00 83 1015.4
20260506193300 69 214 0.9 1.7 0.00 0.00 0.00 84 1015.1
20260506192756 69 206 0.9 0.9 0.00 0.00 0.00 85 1015.3
20260506192253 69 227 0.0 0.0 0.00 0.00 0.00 85 1015.4
20260506191750 69 243 0.9 1.7 0.00 0.00 0.00 85 1015.5
20260506191246 70 212 0.0 0.9 0.00 0.00 0.00 85 1015.1
20260506190743 70 217 0.0 0.9 0.00 0.00 0.00 85 1015.2
20260506190240 71 186 1.7 1.7 0.00 0.00 0.00 85 1015.3
20260506185737 73 59 0.0 0.0 0.00 0.00 0.00 84 1015.2
20260506185233 75 210 0.9 1.7 0.00 0.00 0.00 82 1015.2
20260506184731 78 187 1.7 1.7 0.00 0.00 0.00 78 1015.0
20260506184228 79 204 0.0 0.0 0.00 0.00 0.00 76 1015.0
20260506183725 79 224 0.9 1.7 0.00 0.00 0.00 75 1015.2
20260506183220 79 201 0.9 0.9 0.00 0.00 0.00 72 1014.9
20260506182718 80 201 0.0 0.0 0.00 0.00 0.00 73 1014.9
20260506182215 81 203 0.9 0.9 0.00 0.00 0.00 72 1014.9
20260506181713 79 173 0.0 0.0 0.00 0.00 0.00 75 1014.7
20260506181210 80 211 1.7 1.7 0.00 0.00 0.00 71 1014.9
20260506180707 80 211 0.0 0.0 0.00 0.00 0.00 71 1014.8
20260506180203 80 244 0.0 0.9 0.00 0.00 0.00 70 1014.9
20260506175659 78 181 0.0 0.9 0.00 0.00 0.00 73 1015.0
20260506175156 78 204 0.9 0.9 0.00 0.00 0.00 73 1014.9
20260506174654 78 171 0.9 1.7 0.00 0.00 0.00 73 1014.8
20260506174151 78 254 0.9 0.9 0.00 0.00 0.00 72 1014.6
20260506173649 77 217 0.0 0.9 0.00 0.00 0.00 76 1014.5
20260506173145 76 216 0.0 0.9 0.00 0.00 0.00 76 1014.4
20260506172642 74 189 0.9 1.7 0.00 0.00 0.00 78 1014.5
20260506172139 74 210 0.9 0.9 0.00 0.00 0.00 80 1014.8
20260506171636 74 222 0.0 0.0 0.00 0.00 0.00 79 1014.9
20260506171134 74 211 1.7 2.6 0.00 0.00 0.00 76 1015.0
20260506170626 73 208 0.9 1.7 0.00 0.00 0.00 81 1014.8
20260506170122 72 209 0.9 0.9 0.00 0.00 0.00 79 1014.9
20260506165621 71 259 0.0 0.9 0.00 0.00 0.00 82 1015.2
20260506165111 71 236 1.7 4.3 0.00 0.00 0.00 80 1015.2
20260506164609 71 215 1.7 2.6 0.00 0.00 0.00 79 1015.2
20260506164106 70 206 0.9 0.9 0.00 0.00 0.00 84 1015.0
20260506163601 68 197 4.3 5.2 0.00 0.00 0.00 85 1015.2
20260506163057 68 223 0.0 0.0 0.00 0.00 0.00 87 1015.4
20260506162554 66 215 0.0 0.0 0.00 0.00 0.00 89 1015.5
20260506162051 65 215 0.0 0.0 0.00 0.00 0.00 93 1015.8
20260506161549 64 215 0.0 0.0 0.00 0.00 0.00 92 1015.9
20260506161045 64 218 0.0 0.0 0.00 0.00 0.00 92 1016.8
20260506160543 64 254 0.0 0.9 0.00 0.00 0.00 91 1017.2
20260506160040 65 244 1.7 2.6 0.00 0.00 0.00 91 1017.2
20260506155539 65 235 0.0 0.9 0.00 0.00 0.00 91 1016.6
20260506153715 69 209 0.9 1.7 0.00 0.00 0.00 90 1015.2
20260506153213 69 222 1.7 1.7 0.00 0.00 0.00 91 1015.1
20260506152709 69 185 0.0 0.9 0.00 0.00 0.00 91 1015.2
20260506152207 70 212 0.9 1.7 0.00 0.00 0.00 90 1015.3
20260506151706 71 224 0.9 1.7 0.00 0.00 0.00 89 1014.6
20260506151202 73 292 3.5 6.1 0.00 0.00 0.00 87 1014.6
20260506150658 78 342 2.6 2.6 0.00 0.00 0.00 87 1014.9
20260506150155 78 215 0.0 0.0 0.00 0.00 0.00 89 1014.2
20260506145652 78 215 0.9 0.9 0.00 0.00 0.00 89 1014.2
20260506145149 78 215 0.0 0.0 0.00 0.00 0.00 90 1014.1
20260506144647 78 215 0.0 0.0 0.00 0.00 0.00 90 1013.7
20260506144143 78 214 0.0 0.0 0.00 0.00 0.00 91 1013.7
20260506143641 77 209 1.7 2.6 0.00 0.00 0.00 91 1013.3
20260506143139 77 207 2.6 2.6 0.00 0.00 0.00 91 1013.4
20260506142637 77 197 0.9 1.7 0.00 0.00 0.00 91 1013.2
20260506142135 78 225 0.9 1.7 0.00 0.00 0.00 90 1013.2
20260506141632 77 231 1.7 2.6 0.00 0.00 0.00 91 1012.8
20260506141130 78 218 2.6 4.3 0.00 0.00 0.00 90 1012.7
20260506140628 78 179 2.6 4.3 0.00 0.00 0.00 91 1013.0
20260506140125 77 181 2.6 2.6 0.00 0.00 0.00 93 1013.2
20260506135622 76 186 2.6 2.6 0.00 0.00 0.00 93 1013.0
20260506135118 76 217 1.7 2.6 0.00 0.00 0.00 93 1013.5
20260506134614 76 200 2.6 2.6 0.00 0.00 0.00 94 1013.2
20260506134110 76 199 0.9 0.9 0.00 0.00 0.00 94 1012.8
20260506133608 76 206 0.9 0.9 0.00 0.00 0.00 94 1012.9
20260506133104 76 206 1.7 1.7 0.00 0.00 0.00 94 1012.8
20260506132602 76 199 0.9 0.9 0.00 0.00 0.00 95 1012.7
20260506132059 76 199 0.9 1.7 0.00 0.00 0.00 94 1012.8
20260506131556 76 199 0.9 1.7 0.00 0.00 0.00 95 1012.9
20260506131052 76 184 2.6 2.6 0.00 0.00 0.00 95 1012.6
20260506130549 75 181 2.6 2.6 0.00 0.00 0.00 95 1012.3
20260506130047 75 183 1.7 1.7 0.00 0.00 0.00 95 1012.4
20260506125545 75 168 0.9 1.7 0.00 0.00 0.00 96 1012.8
20260506125042 75 169 1.7 2.6 0.00 0.00 0.00 96 1012.3
20260506124540 75 199 0.9 0.9 0.00 0.00 0.00 96 1012.1
20260506124038 75 201 0.9 0.9 0.00 0.00 0.00 96 1012.0
20260506123535 75 201 0.9 0.9 0.00 0.00 0.00 96 1012.3
20260506123033 75 194 2.6 2.6 0.00 0.00 0.00 97 1012.3
20260506122529 75 225 0.9 0.9 0.00 0.00 0.00 97 1012.1
20260506122028 75 227 0.0 0.9 0.00 0.00 0.00 97 1012.1
20260506121525 74 227 0.0 0.0 0.00 0.00 0.00 97 1012.3
20260506121021 74 228 0.0 0.0 0.00 0.00 0.00 97 1012.3
20260506120519 74 227 0.0 0.0 0.00 0.00 0.00 97 1012.3
20260506120017 74 227 0.0 0.0 0.00 0.00 0.00 96 1012.2
20260506115514 74 227 0.0 0.0 0.00 0.00 0.00 96 1012.2
20260506115013 75 227 0.0 0.0 0.00 0.00 0.00 96 1011.9
20260506114509 75 227 0.0 0.0 0.00 0.00 0.00 96 1011.7
20260506114008 75 227 0.0 0.9 0.00 0.00 0.00 96 1011.9
20260506113505 75 228 0.0 0.0 0.00 0.00 0.00 96 1011.8
20260506113002 75 228 0.0 0.0 0.00 0.00 0.00 96 1012.3
20260506112459 75 228 0.0 0.0 0.00 0.00 0.00 96 1012.4
20260506111956 75 228 0.0 0.0 0.00 0.00 0.00 95 1012.2
20260506111454 75 228 0.0 0.0 0.00 0.00 0.00 95 1012.3
20260506110951 75 228 0.0 0.0 0.00 0.00 0.00 95 1012.2
20260506110449 75 228 0.0 0.0 0.00 0.00 0.00 95 1011.9
20260506105945 75 228 0.0 0.0 0.00 0.00 0.00 95 1012.0
20260506105442 75 228 0.0 0.0 0.00 0.00 0.00 95 1012.0
20260506104939 75 228 0.0 0.0 0.00 0.00 0.00 95 1012.1
20260506104437 75 228 0.0 0.0 0.00 0.00 0.00 94 1012.2
20260506103935 75 228 0.0 0.0 0.00 0.00 0.00 94 1011.9
20260506103432 75 227 0.0 0.0 0.00 0.00 0.00 94 1011.8
20260506102929 75 227 0.0 0.0 0.00 0.00 0.00 94 1011.9
20260506102427 75 207 0.0 0.0 0.00 0.00 0.00 94 1011.6
20260506101924 75 207 0.0 0.0 0.00 0.00 0.00 94 1011.8